NOAA NWS Hourly Roundups by Site

Regional Weather Roundup for Omaha, NE

To Select Another Site Choose from List

Select Site:  

000
ASUS43 KOAX 140010
RWRNE

WEATHER ROUNDUP FOR NEBRASKA
NATIONAL WEATHER SERVICE OMAHA NE
700 PM CDT SAT AUG 13 2022

NOTES: SATELLITE DATA IS BEING USED TO AUGMENT CLOUD COVER ABOVE
       12000 FEET.
       "FAIR" INDICATES FEW OR NO CLOUDS BELOW 12,000 FEET WITH NO
       SIGNIFICANT WEATHER AND/OR OBSTRUCTIONS TO VISIBILITY.


NEZ001>004-019>022-054>056-140100-
NEBRASKA PANHANDLE

CITY           SKY/WX    TMP DP  RH WIND       PRES   REMARKS
SCOTTSBLUFF    MOSUNNY   92  57  30 E9        30.04F HX  90
6HR MIN TEMP:  80; 6HR MAX TEMP:  95;

ALLIANCE       SUNNY     93  52  24 E14G20    30.05F HX  90
6HR MIN TEMP:  76; 6HR MAX TEMP:  94;

CHADRON        MOSUNNY   93  52  24 S10       30.02S HX  90
6HR MIN TEMP:  89; 6HR MAX TEMP:  97;

GORDON         SUNNY     87  54  32 SE13      30.08F
6HR MIN TEMP:  84; 6HR MAX TEMP:  91;

KIMBALL        MOSUNNY   89  49  25 SE5       30.12S
SIDNEY         MOSUNNY   93  49  22 SE10      30.06F HX  90
6HR MIN TEMP:  88; 6HR MAX TEMP:  96;

$$

NEZ057>060-069>072-079>082-140100-
SOUTHWEST NEBRASKA

CITY           SKY/WX    TMP DP  RH WIND       PRES   REMARKS
NORTH PLATTE   SUNNY     92  64  39 SE14      30.01F HX  93
6HR MIN TEMP:  92; 6HR MAX TEMP:  97;

IMPERIAL       SUNNY     98  47  17 SE10      30.00F HX  94
6HR MIN TEMP:  93; 6HR MAX TEMP: 101;

LEXINGTON      SUNNY     89  69  50 E13       30.02F HX  93
MCCOOK         SUNNY     95  62  33 E17       29.97S HX  96
6HR MIN TEMP:  93; 6HR MAX TEMP: 102;

OGALLALA       SUNNY     95  60  30 E20G26    30.02F HX  95
$$

NEZ005>010-023>029-035>040-094-140100-
NORTH CENTRAL NEBRASKA

CITY           SKY/WX    TMP DP  RH WIND       PRES   REMARKS
VALENTINE        N/A     79  64  60 SE9       30.09S
6HR MIN TEMP:  79; 6HR MAX TEMP:  83;

AINSWORTH      MOSUNNY   73  65  77 E8        30.10F
BROKEN BOW     MOSUNNY   85  64  49 NE13      30.05S
6HR MIN TEMP:  85; 6HR MAX TEMP:  92;

O`NEILL        CLOUDY    72  66  83 NW3       30.08S
ORD            PTSUNNY   80  67  64 NE7       30.04S
6HR MIN TEMP:  80; 6HR MAX TEMP:  89;

THEDFORD       MOSUNNY   84  60  43 E14       30.08F
$$

NEZ041-046>049-061>064-073>077-083>087-140100-
SOUTH CENTRAL NEBRASKA

CITY           SKY/WX    TMP DP  RH WIND       PRES   REMARKS
GRAND ISLAND   SUNNY     85  68  56 NE13      30.03F
6HR MIN TEMP:  84; 6HR MAX TEMP:  91;

AURORA         SUNNY     82  71  68 NE9       30.02F
HASTINGS       SUNNY     85  72  65 NE13      30.02F HX  91
6HR MIN TEMP:  85; 6HR MAX TEMP:  90;

HEBRON         SUNNY     90  69  50 N9        29.96F HX  94
HOLDREGE       SUNNY     86  70  59 E10       30.01S HX  91
KEARNEY        SUNNY     85  71  63 NE15      30.02F HX  90
YORK           SUNNY     81  70  69 NE12      30.01F
$$

NEZ011>018-030>034-042>045-140100-
NORTHEAST NEBRASKA

CITY           SKY/WX    TMP DP  RH WIND       PRES   REMARKS
NORFOLK        CLOUDY    79  65  62 NE8       30.02F
6HR MIN TEMP:  78; 6HR MAX TEMP:  87;

ALBION         PTSUNNY   77  67  70 N9        30.05S
BLAIR          MOSUNNY   78  66  66 N12       30.01S
COLUMBUS       MOSUNNY   82  70  66 N9        30.03S
FREMONT        MOSUNNY   81  68  63 N10       30.01F
TEKAMAH        PTSUNNY   80  66  62 N8        30.00F
6HR MIN TEMP:  80; 6HR MAX TEMP:  85;

WAYNE          CLOUDY    78  66  67 NE6       30.03F
$$

NEZ050>053-065>068-078-088>093-140100-
SOUTHEAST NEBRASKA

CITY           SKY/WX    TMP DP  RH WIND       PRES   REMARKS
LINCOLN        MOSUNNY   86  70  58 NE14      29.99S HX  90
6HR MIN TEMP:  86; 6HR MAX TEMP:  92;

OMAHA EPPLEY   PTSUNNY   80  67  64 N12       29.99R
6HR MIN TEMP:  80; 6HR MAX TEMP:  88;

BEATRICE       SUNNY     90  70  51 N12       29.96S HX  95
FALLS CITY     MOSUNNY   89  71  55 N9        29.92R HX  95
6HR MIN TEMP:  89; 6HR MAX TEMP: 100;

NEBRASKA CITY  MOSUNNY   87  72  62 N13G18    29.96S HX  93
PLATTSMOUTH    MOSUNNY   83  70  65 N8G17     29.98S
$$

NEZ044-045-051>053-067-140100-
OMAHA AREA

CITY           SKY/WX    TMP DP  RH WIND       PRES   REMARKS
OMAHA EPPLEY   PTSUNNY   80  67  64 N12       29.99R
6HR MIN TEMP:  80; 6HR MAX TEMP:  88;

BLAIR          MOSUNNY   78  66  66 N12       30.01S
FREMONT        MOSUNNY   81  68  63 N10       30.01F
MILLARD        MOSUNNY   80  67  65 N7        30.00R
OFFUTT AFB     MOSUNNY   82  68  61 N15       30.00R
PLATTSMOUTH    MOSUNNY   83  70  65 N8G17     29.98S
WAHOO          SUNNY     81  68  65 N8        30.01R
$$


 

View Past Reports for Omaha, NE.

Products Courtesy of NOAA-NWS
NWS Information Parsing Script by Ken True at Saratoga Weather - Script by SE Lincoln Weather.